Regional Weather Roundup
Issued by NWS

Home | Current Version | Previous Version | Graphics & Text | Print | Product List | Glossary On
Versions: 1 2 3 4 5 6 7 8 9 10 11 12 13 14 15 16 17 18 19 20 21 22 23 24 25 26 27 28 29 30 31 32 33 34 35 36 37 38 39 40 41 42 43 44 45 46 47 48 49 50
000
ASUS43 KOAX 270410
RWRNE

WEATHER ROUNDUP FOR NEBRASKA
NATIONAL WEATHER SERVICE OMAHA NE
1100 PM CDT SUN APR 26 2015

NOTES: SATELLITE DATA IS BEING USED TO AUGMENT CLOUD COVER ABOVE
       12000 FEET.
       "FAIR" INDICATES FEW OR NO CLOUDS BELOW 12,000 FEET WITH NO
       SIGNIFICANT WEATHER AND/OR OBSTRUCTIONS TO VISIBILITY.

  * THESE STATIONS DO NOT REPORT WEATHER SUCH AS RAIN...SNOW OR FOG.

NEZ001>004-019>022-054>056-270500-
NEBRASKA PANHANDLE

CITY           SKY/WX    TMP DP  RH WIND       PRES   REMARKS
SCOTTSBLUFF    CLOUDY    45  32  60 SE5       30.12R
ALLIANCE       MOCLDY    42  39  89 CALM      30.10R
CHADRON        CLOUDY    47  40  76 CALM      30.11R
KIMBALL        RAIN      40  40  99 E8        30.09R WCI  34
SIDNEY         CLOUDY    42  41  96 E5        30.12R FOG
$$

NEZ057>060-069>072-079>082-270500-
SOUTHWEST NEBRASKA

CITY           SKY/WX    TMP DP  RH WIND       PRES   REMARKS
IMPERIAL       CLOUDY    47  42  83 NE7       30.10R
LEXINGTON      PTCLDY    48  42  80 NE8       30.09R
MCCOOK         CLOUDY    51  43  74 NE8       30.08R
OGALLALA       CLOUDY    45  42  91 CALM      30.12R
$$

NEZ005>010-023>029-035>040-094-270500-
NORTH CENTRAL NEBRASKA

CITY           SKY/WX    TMP DP  RH WIND       PRES   REMARKS
VALENTINE      PTCLDY    47  31  53 E6        30.12R
AINSWORTH      PTCLDY    45  29  55 CALM      30.12R
BROKEN BOW     CLEAR     39  34  82 CALM      30.11R
O`NEILL        CLEAR     48  35  60 CALM      30.11R
ORD            CLEAR     40  33  76 CALM      30.11R
THEDFORD       PTCLDY    45  38  78 SE3       30.13R
$$

NEZ041-046>049-061>064-073>077-083>087-270500-
SOUTH CENTRAL NEBRASKA

CITY           SKY/WX    TMP DP  RH WIND       PRES   REMARKS
GRAND ISLAND   CLEAR     43  37  79 NE7       30.10R
AURORA         CLEAR     46  40  81 NE9       30.09S
HASTINGS       CLEAR     44  39  82 NE7       30.07S
HEBRON         CLEAR     47  38  70 NE8       30.05S
HOLDREGE       FAIR      45  40  84 NE6       30.07S
KEARNEY *      CLEAR     43  37  81 NE7       30.09S
YORK           CLEAR     43  37  81 NE6       30.10S
$$

NEZ011>018-030>034-042>045-270500-
NORTHEAST NEBRASKA

CITY           SKY/WX    TMP DP  RH WIND       PRES   REMARKS
NORFOLK        CLEAR     43  36  76 S6        30.10R
ALBION         CLEAR     42  34  74 CALM      30.11R
BLAIR          CLEAR     52  32  47 SE5       30.09R
COLUMBUS *     PTCLDY    43  34  70 CALM      30.12R
FREMONT        CLEAR     51  37  59 SE3       30.11R
TEKAMAH        CLEAR     46  35  65 SW5       30.10R
WAYNE          CLEAR     42  32  67 CALM      30.10R
$$

NEZ050>053-065>068-078-088>093-270500-
SOUTHEAST NEBRASKA

CITY           SKY/WX    TMP DP  RH WIND       PRES   REMARKS
LINCOLN        CLEAR     41  35  79 N7        30.10R
OMAHA EPPLEY   PTCLDY    53  35  50 SE5       30.10R
BEATRICE       CLEAR     47  37  67 NE7       30.06S
FALLS CITY     CLEAR     51  32  48 NE9       30.05R
NEBRASKA CITY  CLEAR     50  29  44 CALM      30.08S
PLATTSMOUTH    CLEAR     52  31  44 E6        30.09S
$$

NEZ044-045-051>053-067-270500-
OMAHA AREA

CITY           SKY/WX    TMP DP  RH WIND       PRES   REMARKS
OMAHA EPPLEY   PTCLDY    53  35  50 SE5       30.10R
BLAIR          CLEAR     52  32  47 SE5       30.09R
FREMONT        CLEAR     51  37  59 SE3       30.11R
MILLARD        FAIR      49  37  63 CALM      30.09R
OFFUTT AFB     FAIR      42  36  79 CALM      30.09R
PLATTSMOUTH    CLEAR     52  31  44 E6        30.09S
WAHOO          FAIR      50  36  58 CALM      30.10R
$$



USA.gov is the U.S. government's official web portal to all federal, state and local government web resources and services.